Time,TemperatureF,DewpointF,PressureIn,WindDirection,WindDirectionDegrees,WindSpeedMPH,WindSpeedGustMPH,Humidity,HourlyPrecipIn,Conditions,Clouds,dailyrainin,SoftwareType,DateUTC
2013-05-18 00:09:00,50.9,49.0,30.00,West,276,0.0,0.0,93,0.00,,,0.00,weatherlink.com 1.10,2013-05-18 07:09:00,
2013-05-18 00:24:00,51.1,50.0,30.00,West,276,0.0,0.0,94,0.00,,,0.00,weatherlink.com 1.10,2013-05-18 07:24:00,
2013-05-18 00:40:00,51.7,50.0,30.00,West,276,0.0,0.0,93,0.00,,,0.00,weatherlink.com 1.10,2013-05-18 07:40:00,
2013-05-18 00:55:00,52.5,51.0,30.00,West,276,0.0,0.0,94,0.00,,,0.00,weatherlink.com 1.10,2013-05-18 07:55:00,
2013-05-18 01:10:00,52.6,51.0,30.00,West,276,0.0,0.0,94,0.00,,,0.00,weatherlink.com 1.10,2013-05-18 08:10:00,
2013-05-18 01:25:00,52.6,51.0,30.00,West,276,0.0,0.0,94,0.00,,,0.00,weatherlink.com 1.10,2013-05-18 08:25:00,
2013-05-18 01:40:00,52.3,51.0,30.00,West,276,0.0,0.0,94,0.00,,,0.00,weatherlink.com 1.10,2013-05-18 08:40:00,
2013-05-18 01:55:00,52.2,51.0,30.00,WNW,295,0.0,0.0,94,0.00,,,0.00,weatherlink.com 1.10,2013-05-18 08:55:00,
2013-05-18 02:10:00,51.7,50.0,30.00,ENE,60,0.0,0.0,95,0.00,,,0.00,weatherlink.com 1.10,2013-05-18 09:10:00,
2013-05-18 02:25:00,51.4,50.0,30.00,ENE,59,0.0,0.0,94,0.00,,,0.00,weatherlink.com 1.10,2013-05-18 09:25:00,
2013-05-18 02:40:00,50.5,49.0,30.00,ENE,60,0.0,0.0,94,0.00,,,0.00,weatherlink.com 1.10,2013-05-18 09:40:00,
2013-05-18 02:55:00,49.9,49.0,30.00,ENE,61,0.0,0.0,95,0.00,,,0.00,weatherlink.com 1.10,2013-05-18 09:55:00,
2013-05-18 03:10:00,49.9,49.0,30.00,ENE,59,0.0,0.0,95,0.00,,,0.00,weatherlink.com 1.10,2013-05-18 10:10:00,
2013-05-18 03:25:00,49.2,48.0,30.00,ENE,59,0.0,0.0,95,0.00,,,0.00,weatherlink.com 1.10,2013-05-18 10:25:00,
2013-05-18 03:40:00,48.3,47.0,30.00,ENE,59,0.0,0.0,95,0.00,,,0.00,weatherlink.com 1.10,2013-05-18 10:40:00,
2013-05-18 03:55:00,47.5,46.0,30.01,ENE,60,0.0,0.0,95,0.00,,,0.00,weatherlink.com 1.10,2013-05-18 10:55:00,
2013-05-18 04:10:00,47.1,46.0,30.00,ENE,60,0.0,0.0,95,0.00,,,0.00,weatherlink.com 1.10,2013-05-18 11:10:00,
2013-05-18 04:25:00,46.8,46.0,30.01,ENE,60,0.0,0.0,95,0.00,,,0.00,weatherlink.com 1.10,2013-05-18 11:25:00,
2013-05-18 04:40:00,46.9,46.0,30.01,ENE,59,0.0,0.0,96,0.00,,,0.00,weatherlink.com 1.10,2013-05-18 11:40:00,
2013-05-18 04:55:00,47.3,46.0,30.01,ENE,60,0.0,0.0,96,0.00,,,0.00,weatherlink.com 1.10,2013-05-18 11:55:00,
2013-05-18 05:10:00,47.2,46.0,30.01,ENE,59,0.0,0.0,95,0.00,,,0.00,weatherlink.com 1.10,2013-05-18 12:10:00,
2013-05-18 05:25:00,46.9,46.0,30.02,ENE,61,0.0,0.0,96,0.00,,,0.00,weatherlink.com 1.10,2013-05-18 12:25:00,
2013-05-18 05:40:00,46.5,45.0,30.02,ENE,61,0.0,0.0,95,0.00,,,0.00,weatherlink.com 1.10,2013-05-18 12:40:00,
2013-05-18 05:55:00,46.5,46.0,30.02,ENE,59,0.0,0.0,96,0.00,,,0.00,weatherlink.com 1.10,2013-05-18 12:55:00,
2013-05-18 06:10:00,47.5,47.0,30.03,ENE,60,0.0,0.0,96,0.00,,,0.00,weatherlink.com 1.10,2013-05-18 13:10:00,
2013-05-18 06:25:00,48.3,47.0,30.04,ENE,61,0.0,0.0,96,0.00,,,0.00,weatherlink.com 1.10,2013-05-18 13:25:00,
2013-05-18 06:40:00,48.7,48.0,30.04,ENE,59,0.0,0.0,96,0.00,,,0.00,weatherlink.com 1.10,2013-05-18 13:40:00,
2013-05-18 06:55:00,48.9,48.0,30.04,East,88,0.0,0.0,96,0.00,,,0.00,weatherlink.com 1.10,2013-05-18 13:55:00,
2013-05-18 07:10:00,49.7,49.0,30.04,East,87,0.0,0.0,96,0.00,,,0.00,weatherlink.com 1.10,2013-05-18 14:10:00,
2013-05-18 07:25:00,50.6,50.0,30.05,East,87,0.0,0.0,96,0.00,,,0.00,weatherlink.com 1.10,2013-05-18 14:25:00,
2013-05-18 07:40:00,52.7,52.0,30.05,East,88,0.0,0.0,97,0.00,,,0.00,weatherlink.com 1.10,2013-05-18 14:40:00,
2013-05-18 07:55:00,53.4,52.0,30.05,East,88,0.0,0.0,95,0.00,,,0.00,weatherlink.com 1.10,2013-05-18 14:55:00,
2013-05-18 08:10:00,54.6,53.0,30.05,East,87,0.0,0.0,95,0.00,,,0.00,weatherlink.com 1.10,2013-05-18 15:10:00,
2013-05-18 08:26:00,57.0,56.0,30.05,East,88,0.0,0.0,96,0.00,,,0.00,weatherlink.com 1.10,2013-05-18 15:26:00,
2013-05-18 08:41:00,60.7,57.0,30.05,SW,235,2.0,4.0,86,0.00,,,0.00,weatherlink.com 1.10,2013-05-18 15:41:00,
2013-05-18 08:56:00,62.5,56.0,30.05,WSW,253,1.0,3.0,78,0.00,,,0.00,weatherlink.com 1.10,2013-05-18 15:56:00,
2013-05-18 09:11:00,64.1,56.0,30.05,West,274,0.0,3.0,74,0.00,,,0.00,weatherlink.com 1.10,2013-05-18 16:11:00,
2013-05-18 09:26:00,65.6,56.0,30.04,NNW,336,0.0,4.0,70,0.00,,,0.00,weatherlink.com 1.10,2013-05-18 16:26:00,
2013-05-18 09:41:00,65.9,55.0,30.04,WSW,242,4.0,8.0,69,0.00,,,0.00,weatherlink.com 1.10,2013-05-18 16:41:00,
2013-05-18 09:56:00,66.2,56.0,30.04,WSW,245,3.0,8.0,70,0.00,,,0.00,weatherlink.com 1.10,2013-05-18 16:56:00,
2013-05-18 10:11:00,66.5,56.0,30.04,West,281,2.0,9.0,69,0.00,,,0.00,weatherlink.com 1.10,2013-05-18 17:11:00,
2013-05-18 10:26:00,67.6,56.0,30.04,WNW,294,1.0,7.0,67,0.00,,,0.00,weatherlink.com 1.10,2013-05-18 17:26:00,
2013-05-18 10:41:00,68.2,56.0,30.04,WSW,256,2.0,9.0,66,0.00,,,0.00,weatherlink.com 1.10,2013-05-18 17:41:00,
2013-05-18 10:56:00,69.8,57.0,30.04,WNW,302,3.0,5.0,64,0.00,,,0.00,weatherlink.com 1.10,2013-05-18 17:56:00,
2013-05-18 11:11:00,69.2,56.0,30.03,West,259,8.0,10.0,64,0.00,,,0.00,weatherlink.com 1.10,2013-05-18 18:11:00,
2013-05-18 11:26:00,69.0,56.0,30.03,WSW,243,2.0,9.0,64,0.00,,,0.00,weatherlink.com 1.10,2013-05-18 18:26:00,
2013-05-18 11:41:00,69.8,57.0,30.02,West,259,5.0,10.0,63,0.00,,,0.00,weatherlink.com 1.10,2013-05-18 18:41:00,
2013-05-18 11:56:00,70.0,57.0,30.02,WSW,252,7.0,10.0,63,0.00,,,0.00,weatherlink.com 1.10,2013-05-18 18:56:00,
2013-05-18 12:11:00,70.1,56.0,30.02,WSW,242,6.0,9.0,62,0.00,,,0.00,weatherlink.com 1.10,2013-05-18 19:11:00,
2013-05-18 12:26:00,70.3,56.0,30.02,WSW,256,10.0,12.0,61,0.00,,,0.00,weatherlink.com 1.10,2013-05-18 19:26:00,
2013-05-18 12:41:00,69.9,56.0,30.02,West,278,5.0,18.0,61,0.00,,,0.00,weatherlink.com 1.10,2013-05-18 19:41:00,
2013-05-18 12:56:00,69.9,56.0,30.01,West,262,9.0,15.0,62,0.00,,,0.00,weatherlink.com 1.10,2013-05-18 19:56:00,
2013-05-18 13:11:00,71.2,56.0,30.01,West,276,5.0,10.0,60,0.00,,,0.00,weatherlink.com 1.10,2013-05-18 20:11:00,
2013-05-18 13:26:00,71.3,56.0,30.00,WSW,250,6.0,13.0,59,0.00,,,0.00,weatherlink.com 1.10,2013-05-18 20:26:00,
2013-05-18 13:41:00,71.4,56.0,30.00,West,264,7.0,16.0,59,0.00,,,0.00,weatherlink.com 1.10,2013-05-18 20:41:00,
2013-05-18 13:56:00,71.5,56.0,30.00,West,276,4.0,13.0,58,0.00,,,0.00,weatherlink.com 1.10,2013-05-18 20:56:00,
2013-05-18 14:11:00,71.6,56.0,30.00,WSW,246,6.0,12.0,58,0.00,,,0.00,weatherlink.com 1.10,2013-05-18 21:11:00,
2013-05-18 14:26:00,73.8,56.0,30.00,WSW,256,9.0,9.0,54,0.00,,,0.00,weatherlink.com 1.10,2013-05-18 21:26:00,
2013-05-18 14:41:00,72.9,57.0,30.00,SW,235,2.0,12.0,57,0.00,,,0.00,weatherlink.com 1.10,2013-05-18 21:41:00,
2013-05-18 14:56:00,74.9,56.0,29.99,West,271,4.0,6.0,53,0.00,,,0.00,weatherlink.com 1.10,2013-05-18 21:56:00,
2013-05-18 15:12:00,73.9,57.0,29.99,WSW,241,5.0,6.0,55,0.00,,,0.00,weatherlink.com 1.10,2013-05-18 22:12:00,
2013-05-18 15:27:00,72.4,56.0,29.99,West,278,4.0,12.0,56,0.00,,,0.00,weatherlink.com 1.10,2013-05-18 22:27:00,
2013-05-18 15:42:00,72.2,56.0,29.98,SW,229,4.0,12.0,57,0.00,,,0.00,weatherlink.com 1.10,2013-05-18 22:42:00,
2013-05-18 15:57:00,72.4,56.0,29.98,West,259,2.0,10.0,57,0.00,,,0.00,weatherlink.com 1.10,2013-05-18 22:57:00,
2013-05-18 16:12:00,73.1,56.0,29.98,West,273,2.0,8.0,56,0.00,,,0.00,weatherlink.com 1.10,2013-05-18 23:12:00,
2013-05-18 16:27:00,74.8,56.0,29.98,West,267,4.0,8.0,53,0.00,,,0.00,weatherlink.com 1.10,2013-05-18 23:27:00,
2013-05-18 16:42:00,75.2,56.0,29.98,West,259,2.0,6.0,52,0.00,,,0.00,weatherlink.com 1.10,2013-05-18 23:42:00,
2013-05-18 16:57:00,73.4,55.0,29.97,West,273,5.0,8.0,53,0.00,,,0.00,weatherlink.com 1.10,2013-05-18 23:57:00,
2013-05-18 17:12:00,72.6,55.0,29.97,SW,229,7.0,7.0,54,0.00,,,0.00,weatherlink.com 1.10,2013-05-19 00:12:00,
2013-05-18 17:27:00,71.4,55.0,29.97,WSW,249,6.0,7.0,57,0.00,,,0.00,weatherlink.com 1.10,2013-05-19 00:27:00,
2013-05-18 17:42:00,69.5,55.0,29.97,WSW,248,3.0,7.0,61,0.00,,,0.00,weatherlink.com 1.10,2013-05-19 00:42:00,
2013-05-18 17:57:00,68.7,55.0,29.97,West,274,3.0,8.0,62,0.00,,,0.00,weatherlink.com 1.10,2013-05-19 00:57:00,
2013-05-18 18:12:00,68.0,55.0,29.97,WSW,253,5.0,7.0,64,0.00,,,0.00,weatherlink.com 1.10,2013-05-19 01:12:00,
2013-05-18 18:27:00,67.2,55.0,29.97,WSW,239,2.0,7.0,65,0.00,,,0.00,weatherlink.com 1.10,2013-05-19 01:27:00,
2013-05-18 18:42:00,66.6,55.0,29.97,West,273,0.0,4.0,66,0.00,,,0.00,weatherlink.com 1.10,2013-05-19 01:42:00,
2013-05-18 18:57:00,65.8,55.0,29.97,West,259,3.0,5.0,68,0.00,,,0.00,weatherlink.com 1.10,2013-05-19 01:57:00,
2013-05-18 19:12:00,65.2,54.0,29.98,WSW,247,2.0,6.0,68,0.00,,,0.00,weatherlink.com 1.10,2013-05-19 02:12:00,
2013-05-18 19:27:00,64.1,54.0,29.98,West,267,1.0,4.0,69,0.00,,,0.00,weatherlink.com 1.10,2013-05-19 02:27:00,
2013-05-18 19:42:00,62.5,54.0,29.98,WSW,250,0.0,4.0,73,0.00,,,0.00,weatherlink.com 1.10,2013-05-19 02:42:00,
2013-05-18 19:57:00,60.9,53.0,29.99,WSW,252,0.0,1.0,76,0.00,,,0.00,weatherlink.com 1.10,2013-05-19 02:57:00,
2013-05-18 20:12:00,59.7,53.0,29.99,WSW,255,0.0,1.0,78,0.00,,,0.00,weatherlink.com 1.10,2013-05-19 03:12:00,
2013-05-18 20:27:00,58.6,52.0,29.99,WSW,255,0.0,0.0,79,0.00,,,0.00,weatherlink.com 1.10,2013-05-19 03:27:00,
2013-05-18 20:42:00,57.5,52.0,29.99,WSW,254,0.0,0.0,81,0.00,,,0.00,weatherlink.com 1.10,2013-05-19 03:42:00,
2013-05-18 20:57:00,56.4,51.0,29.99,WSW,255,0.0,0.0,81,0.00,,,0.00,weatherlink.com 1.10,2013-05-19 03:57:00,
2013-05-18 21:12:00,55.4,50.0,30.00,WSW,255,0.0,0.0,82,0.00,,,0.00,weatherlink.com 1.10,2013-05-19 04:12:00,
2013-05-18 21:27:00,54.7,50.0,30.00,WSW,255,0.0,0.0,83,0.00,,,0.00,weatherlink.com 1.10,2013-05-19 04:27:00,
2013-05-18 21:42:00,54.0,49.0,30.00,WSW,255,0.0,0.0,83,0.00,,,0.00,weatherlink.com 1.10,2013-05-19 04:42:00,
2013-05-18 21:57:00,53.2,49.0,30.00,WSW,255,0.0,0.0,84,0.00,,,0.00,weatherlink.com 1.10,2013-05-19 04:57:00,
2013-05-18 22:12:00,52.6,48.0,30.00,WSW,255,0.0,0.0,85,0.00,,,0.00,weatherlink.com 1.10,2013-05-19 05:12:00,
2013-05-18 22:27:00,52.0,48.0,30.00,WSW,255,0.0,0.0,85,0.00,,,0.00,weatherlink.com 1.10,2013-05-19 05:27:00,
2013-05-18 22:42:00,51.4,47.0,30.00,WSW,255,0.0,0.0,86,0.00,,,0.00,weatherlink.com 1.10,2013-05-19 05:42:00,
2013-05-18 22:57:00,50.7,47.0,30.00,WSW,255,0.0,0.0,86,0.00,,,0.00,weatherlink.com 1.10,2013-05-19 05:57:00,
2013-05-18 23:12:00,50.1,46.0,30.00,WSW,255,0.0,0.0,87,0.00,,,0.00,weatherlink.com 1.10,2013-05-19 06:12:00,
2013-05-18 23:27:00,49.6,46.0,30.00,WSW,255,0.0,0.0,87,0.00,,,0.00,weatherlink.com 1.10,2013-05-19 06:27:00,
2013-05-18 23:42:00,49.2,46.0,30.00,WSW,255,0.0,0.0,88,0.00,,,0.00,weatherlink.com 1.10,2013-05-19 06:42:00,
2013-05-18 23:57:00,48.8,45.0,30.00,WSW,255,0.0,0.0,88,0.00,,,0.00,weatherlink.com 1.10,2013-05-19 06:57:00,